THOR ABLESTAR DEB, 48817

Orbit data source: Space-Track

THOR ABLESTAR DEB, 48817 is space debris in LEO originally from a launch on Thu, 29 Jun 1961 UTC launched from the Air Force Eastern Test Range (AFETR). Debris objects in space refer to the collection of defunct objects orbiting the Earth. Examples of debris include non-operational satellites, rocket bodies, and fragments generated from explosions, collisions, or faulty payload assembly.

Loading next visibility...
Identifier
48817, 1961-015MV
Orbit
LEO
Country
Flag of USUS
Related business
Manufacturer
Unknown
Mission
Spacecraft
Bus & Motor
Unknown
Mass
Unknown
Launch date (UTC)
1961-06-29 (64 years ago)
Launch vehicle
Unknown
Launch site
Air Force Eastern Test Range (AFETR)
Object type
Payload
Rocket body
Debris
Shape & HBR
Unknown shape, 0.1 m
Radar Cross Section
Small (<0.1 m²)

Expand to show TLE details & history
Last TLE update: 2 days ago

TLE from 2 days ago
0 THOR ABLESTAR DEB
1 48817U 61015MV  25285.24452283  .00000418  00000-0  34097-3 0  9992
2 48817  65.8383 273.7652 0211238 338.6964  20.5406 13.89782890602809
Epoch: 2025-10-12T05:52Z
TLE epoch observation values (Epoch: 2025-10-12T05:52:06.772Z)
Latitude
-0.00004°
Longitude
164.67253°
Altitude
787.244 km
Speed
7.534 km/s
True Right ascension
18h 15m 03s
True Declination
0° 00' 00"
Sunlit
Object was in daylight at epoch
Visualization orbit readout
Latitude
Unknown
Longitude
Unknown
Altitude
Unknown
Speed
Unknown
Apparent Right ascension
Unknown
Apparent Declination
Unknown
Sunlit
N/A
Visualization observer readout
Local Sidereal Time
09:57:14
Azimuth
Unknown
Elevation
Unknown
Doppler factor
Unknown
Orbital elements
Apogee altitude
1,082.228 km
Perigee altitude
773.565 km
Semi-major axis
7,306.034 km
Eccentricity
0.02112
Inclination
65.8383°
RAAN
273.7652°
Arg. of periapsis
338.6964°
True anomaly
21.4114°
Mean anomaly
20.5406°
Eccentric anomaly
20.97382°
Mean motion
3.47553 °/min
Orbital period
103.58 mins
BSTAR
0.00034097

Documentation

Showing up to 5 results
|